Tracking 29892 objects as of 21-Nov-2024
HD Live streaming from Space Station
objects crossing your sky now

STARLINK-5656

Track STARLINK-5656 now!
10-day predictions
STARLINK-5656 is classified as:


NORAD ID: 55451
Int'l Code: 2023-015C
Perigee: 565.2 km
Apogee: 567.2 km
Inclination: 43.0 °
Period: 95.8 minutes
Semi major axis: 6937 km
RCS: Unknown
Launch date: February 2, 2023
Source: United States (US)
Launch site: AIR FORCE EASTERN TEST RANGE (AFETR)
Your satellite tracking list
Your tracking list is empty




NASA's NSSDC Master Catalog

Two Line Element Set (TLE):
1 55451U 23015C   24325.66404207  .00000647  00000-0  62928-4 0  9994
2 55451  43.0054  22.1120 0001396 257.9830 102.0856 15.02540935 99441
Source of the keplerian elements: AFSPC